Wednesday, November 26, 2014
21:35 UTC
  |  Log In   |  Register Free
Airport Search:

South Alabama Regional At Bill Benton Field Airport
(K79J)

South Alabama Regional At Bill Benton Field Airport Diagram
No Airport Diagram Available

FAA data valid effective November 13, 2014 - January 08, 2015 (unless otherwise noted).

 
 
 
 
 
 
 
 
 
 
 
 
 
 

Current Aviation Weather for South Alabama Regional At Bill Benton Field Airport (K79J)

The most recent METAR observation for K79J was updated at: 2119
METAR Summary (Translated METAR)
K79J
262056Z AUTO 24003KT 10SM CLR 19/M02 A3015 RMK AO2 SLP207 T01891022 56013
K0J4
262058Z AUTO 00000KT 10SM CLR 17/M02 A3017 RMK AO2 SLP215 T01721017 56008 $
(16.5 nm SE from K79J)
KEDN
262055Z AUTO 32006KT 290V350 10SM CLR 15/M02 A3014 RMK AO2
(25.3 nm SE from K79J)
TAF
No TAF information found within 50 nm of KLOR
  Airport Weather Conditions for K79J

 Current Weather at 79J
66° F
Fair
Southwest winds at 3.5 mph
79J NOAA Radar

Pressure: 30.15 in
Humidity: 24%
Wind: Southwest at 3.5 MPH (3 KT)
Dew Point: 28.0°F
Visibility: 10.00 mi


Airport Weather Forecast for K79J

Translated METAR and TAF for KLOR
Translated METAR for KLOR (2130 UTC 26 November 2014)
found at http://aviationweather.gov/adds/metars/
 
METAR text: KLOR 262053Z AUTO 28005KT 10SM CLR 16/M03 A3013 RMK AO2 SLP202 T01611033 58009 TSNO $
Conditions at: KLOR (LOWE AHP/FT. RUC, AL, US) observed 2053 UTC 26 November 2014
Temperature: 16.1°C (61°F)
Dewpoint: -3.3°C (26°F) [RH = 26%]
Pressure (altimeter): 30.13 inches Hg (1020.4 mb)
[Sea-level pressure: 1020.2 mb]
Winds: from the W (280 degrees) at 6 MPH (5 knots; 2.6 m/s)
Visibility: 10 or more miles (16+ km)
Ceiling: at least 12,000 feet AGL
Clouds: sky clear below 12,000 feet AGL
Weather:
SOME DATA ABOVE MAY BE INACCURATE!!!
"$" is an indication the sensor requires maintenance
Translated TAF for KLOR

There is no translated TAF available for this airport

Find All Airport Services Find A Hotel Find A Rental Car Find A Golf Course Find A Restaurant $100 Hamburger



FBO's on the Field
FBO Company Facility Photos Services Transportation Aviation Fuel Prices: Prices include tax
Catering Weather Repair Courtesy Rental Type 100LL JetA JetA+ MOGAS 8087
 
South Alabama Regional Airport

This FBO has not yet been rated
FS:Phillips 66
Last Updated: Nov-12
Login to update fuel prices
SS:
Contact South Alabama Regional AirportMore FBO Information
 
Add another FBO Facility Photos Catering Weather Repair Courtesy Rental Type 100LL JetA JetA+ MOGAS 8087
Services Transportation Aviation Fuel Prices: Prices include tax


model-print
model-print
model-print
model-print